Regional Weather Roundup
Issued by NWS Newport/Morehead, NC

Current Version | Previous Version | Graphics & Text | Print | Product List | Glossary On
Versions: 1 2 3 4 5 6 7 8 9 10 11 12 13 14 15 16 17 18 19 20 21 22 23 24 25 26 27 28 29 30 31 32 33 34 35 36 37 38 39 40 41 42 43 44 45 46 47 48 49 50
000 ASUS42 KMHX 051812 RWRMHX WEATHER ROUNDUP FOR EASTERN NORTH CAROLINA NATIONAL WEATHER SERVICE NEWPORT/MOREHEAD CITY NC 100 PM EST MON DEC 05 2016 NOTE: "FAIR" INDICATES FEW OR NO CLOUDS BELOW 12,000 FEET WITH NO SIGNIFICANT WEATHER AND/OR OBSTRUCTIONS TO VISIBILITY NCZ015>017-031-032-045>047-102-103-051900- NORTH COAST CITY SKY/WX TMP DP RH WIND PRES REMARKS EDENTON PTSUNNY 56 49 76 N12 29.99S ELIZABETH CITY PTSUNNY 55 48 77 N16 29.99R KITTY HAWK CLOUDY 54 52 93 N8G16 29.95F MANTEO CLOUDY 53 50 91 N8 29.97S $$ NCZ045>047-081-094-103-104-051900- CENTRAL COAST CITY SKY/WX TMP DP RH WIND PRES REMARKS FRISCO CLOUDY 54 51 90 VRB6 29.95F $$ NCZ095-097-098-100-101-051900- SOUTHERN COAST CITY SKY/WX TMP DP RH WIND PRES REMARKS BEAUFORT MOSUNNY 59 51 75 N10 29.95F CEDAR ISLAND NOT AVBL JACKSONVILLE CLOUDY 58 50 75 N14 29.97S PINEY ISLAND PTCLDY N/A N/A N/A N10 29.96F WILMINGTON MOSUNNY 58 51 78 N8 29.97F $$ NCZ011>013-027>030-043-044-078>080-089-090>093-098-051900- COASTAL PLAIN CITY SKY/WX TMP DP RH WIND PRES REMARKS AHOSKIE SUNNY 52 45 77 N8 30.01S CLINTON MOSUNNY 57 49 74 NW8 29.99F ELIZABETHTOWN MOSUNNY 58 49 71 N6 29.99S GOLDSBORO MOSUNNY 58 48 69 N12 29.97F GREENVILLE SUNNY 55 48 76 N9 30.01F HAVELOCK CLOUDY 57 49 74 N8 29.97F KENANSVILLE MOSUNNY 57 48 72 N9 29.99S KINSTON SUNNY 57 46 67 N12 29.99F NEW BERN CLOUDY 57 49 74 N9 29.98F RICHLANDS MOSUNNY 57 49 74 N9 29.98F ROCKY MOUNT SUNNY 57 46 66 N14 30.00 WASHINGTON SUNNY 57 48 71 N10 29.98F WHITEVILLE CLOUDY 56 49 78 N3 29.97F $$ AMZ130-135-150-152-154-156-158-170-250-252-270-ANZ085-086-088-633-658-670-051900- MARINE OBSERVATIONS STATION/POSITION TIME TEMP WIND PRES WAVE SWELL AIR SEA DIR/SP/G HT/PER HT/PER (UTC) (F) (DEG/KT/KT) (MB) (FT/S) (FT/S) CHESAPEAKE LIGHT NOT AVBL 64 E VA BEACH 1750 56 60 350/ 17/ 23 1013.6 5/ 5 2/ 9 DUCK 1748 52 54 350/ 14/ 16 1014.1 2 E DUCK NOT AVBL OREGON INLET 1748 340/ 11/ 15 N/A 13E OREGON INLT NOT AVBL HATTERAS CG 1748 53 60 340/ 14/ 17 1014.0 DIAMOND BUOY 1750 57 73 350/ 17/ 21 1014.0 6/ 8 3/ 8 CAPE LOOKOUT 1700 53 330/ 10/ 12 1014.9 BEAUFORT LAB 1748 56 55 360/ 11/ 14 1013.2 30 SE NEW RVR IN 1708 51 71 350/ 14/ 19 1013.9 30 SE NEW RVR IN NOT AVBL 27 SE WRIGHTSVLE 1708 56 68 350/ 14/ 19 1015.6 5 SE WRIGHTSVLE 1708 51 63 350/ 8/ 14 1014.3 225 S CAPE HAT 1750 72 73 190/ 21/ 27 1014.1 6/ 6 2/10 41 SE CHARLESTON 1750 63 74 340/ 8/ 10 1014.0 6/ 7 5/ 7 $$

USA.gov is the U.S. government's official web portal to all federal, state and local government web resources and services.